THORAD AGENA D DEB

Satellite information

Favourite Embed

Satellite Type and Status

DEBRISIN ORBIT

Key statistics

Satellite THORAD AGENA D DEB at a glance.

Uptime

20178

Days in orbit

Revolutions

≈ 14.1

Per day

Orbit

SSO

Sun Synchronous Orbit

Inclination

99.5

Latest

Satellite identification and parameters

Extended collection of information and parameters for THORAD AGENA D DEB.

Object identification

Identified? True

Debris? True

Object name: THORAD AGENA D DEB

International designator: 1970-025SS

Object number (NORAD): 42536

Object ID (CCSDS): 42536

Country: UNITED STATES OF AMERICA (US)

Current information (Y/N): Y

RCS size: SMALL

Orbital parameters

Period: 102.183 minutes

Inclination: 99.4918 deg

SMA: 7240.113 km

Apoapsis: 906.648 km

Periapsis: 817.309 km

RAAN: 105.1136 deg

Eccentricy: 0.0061697

Argument of periapsis: 228.6836 deg

Mean anomaly: 130.9012 deg

Mean motion: 14.09239195 rev/day

Mean motion (dot): 0.00003177 rev/day2

B* drag term: 0.0018216 1/REarth

Two-line elements (TLE)

Creation date: July 2, 2025, 5:47 p.m.

Reference frame: TEME

Reference center: EARTH

Epoch: July 2, 2025, 1:19 a.m. UTC

TLE line 0: 0 THORAD AGENA D DEB

TLE line 1: 1 42536U 70025SS 25183.05515954 .00003177 00000-0 18216-2 0 9995

TLE line 2: 2 42536 99.4918 105.1136 0061697 228.6836 130.9012 14.09239195591120

Live tracking on map

Real-time ground track for satellite THORAD AGENA D DEB.

In-orbit conjunctions

A list of the most updated potential collisions computed for object THORAD AGENA D DEB.

Target Orbit TCA Probability of collision Miss distance Type
METEOR 1-20 LEO 2025-01-10 09:05:10 0.0001480421 558.0 (m) PAYLOAD
FENGYUN 1C DEB SSO 2024-12-13 10:42:52 0.0001358942 224.0 (m) DEBRIS

Associated space launch

Meteorological research and development satellite

THORAD AGENA D DEB was lifted into orbit during the mission ‘Thorad SLV-2G Agena D | Nimbus 4’, on board a Thorad SLV-2G Agena D space rocket.

The launch took place on April 8, 1970, 8:17 a.m. from Space Launch Complex 2E.

For more information about the launch, click the button.

Launch to space Thorad SLV-2G Agena D | Nimbus 4
Thorad SLV-2G Agena D | Nimbus 4

Agency: N/A

Status: Launch Successful

Launch date: April 8, 1970, 8:17 a.m. UTC

Rocket: Thorad SLV-2G Agena D

Launch pad: Space Launch Complex 2E

Location: Vandenberg SFB, CA, USA

...

Latest news about this satellite

There are no fresh news available about this satellite. Check back as we update our databases every day.


Newsletter sign-up

Weekly statistics, charts and insights to help you stay on top of the space industry.